This is the latest recevied weather packets stored in our database for station/object KI6PPU. If no packets are shown the sender has not sent any weather packets the latest 10 day(s).
| Time | Temp. | Humidity | Pressure | Rain* | Wind** | Luminosity | Snow |
|---|---|---|---|---|---|---|---|
| 1788535232 | 15° C | 96% | 1016.7 hPa | 0 mm | - | 17 W/m² | - |
| 1788534926 | 15° C | 96% | 1016.8 hPa | 0 mm | - | 18 W/m² | - |
| 1788534621 | 14.44° C | 96% | 1016.7 hPa | 0 mm | - | 22 W/m² | - |
| 1788534321 | 15° C | 96% | 1016.6 hPa | 0 mm | - | 26 W/m² | - |
| 1788534015 | 15° C | 96% | 1016.7 hPa | 0 mm | - | 15 W/m² | - |
| 1788533710 | 14.44° C | 96% | 1016.5 hPa | 0 mm | - | 11 W/m² | - |
| 1788533405 | 14.44° C | 96% | 1016.4 hPa | 0 mm | - | 11 W/m² | - |
| 1788533101 | 14.44° C | 96% | 1016.5 hPa | 0 mm | - | 10 W/m² | - |
| 1788532796 | 14.44° C | 96% | 1016.4 hPa | 0 mm | - | 7 W/m² | - |
| 1788532492 | 14.44° C | 96% | 1016.2 hPa | 0 mm | - | 5 W/m² | - |
| 1788532189 | 14.44° C | 96% | 1016 hPa | 0 mm | - | 9 W/m² | - |
| 1788531885 | 14.44° C | 96% | 1015.9 hPa | 0 mm | - | 7 W/m² | - |
| 1788531584 | 14.44° C | 96% | 1015.8 hPa | 0 mm | - | 5 W/m² | - |
| 1788531280 | 14.44° C | 96% | 1015.7 hPa | 0 mm | - | 2 W/m² | - |
| 1788530976 | 14.44° C | 96% | 1015.5 hPa | 0 mm | - | 4 W/m² | - |
| 1788530676 | 14.44° C | 96% | 1015.4 hPa | 0 mm | - | 1 W/m² | - |
| 1788530375 | 14.44° C | 96% | 1015.7 hPa | 0 mm | - | 0 W/m² | - |
| 1788530075 | 14.44° C | 96% | 1015.5 hPa | 0 mm | - | 0 W/m² | - |
| 1788529771 | 14.44° C | 96% | 1015.6 hPa | 0 mm | - | 0 W/m² | - |
| 1788529471 | 14.44° C | 96% | 1015.4 hPa | 0 mm | - | 0 W/m² | - |
| 1788529166 | 14.44° C | 96% | 1015.4 hPa | 0 mm | - | 0 W/m² | - |
| 1788528861 | 14.44° C | 96% | 1015.3 hPa | 0 mm | - | 0 W/m² | - |
| 1788528556 | 14.44° C | 96% | 1015.4 hPa | 0 mm | - | 0 W/m² | - |
| 1788528251 | 14.44° C | 96% | 1015.3 hPa | 0 mm | - | 0 W/m² | - |
| 1788527950 | 14.44° C | 96% | 1015.3 hPa | 0 mm | - | 0 W/m² | - |
* Rain latest hour (hover to see other rain measurements)
** Current wind speed in m/s (hover to see current wind gust speed)